• In Switzerland
  • List of Countries
  • For 7 days
  • Water Temperature
  • Satellite Maps
  • Weather Map
  • Weather Widgets
  • user-avatar
    Login

    Hourly Weather Kerns

    Today, 20 July, Friday

    Time Temperature Precipitation Wind Pressure Humidity
    00:00 +20°C° 0 mm 2 mps 762 mmHg 97%
    01:00 +19°C° 0 mm 2 mps 762 mmHg 98%
    02:00 +19°C° 0 mm 2 mps 762 mmHg 98%
    03:00 +19°C° 0 mm 2 mps 762 mmHg 98%
    04:00 +19°C° 0 mm 2 mps 762 mmHg 98%
    05:00 +19°C° 0 mm 2 mps 762 mmHg 98%
    06:00 +19°C° 0 mm 2 mps 762 mmHg 98%
    07:00 +19°C° 0 mm 2 mps 762 mmHg 98%
    08:00 +21°C° 0 mm 2 mps 762 mmHg 87%
    09:00 +25°C° 0 mm 2 mps 762 mmHg 76%
    10:00 +28°C° 0 mm 2 mps 762 mmHg 65%
    11:00 +28°C° 0 mm 2 mps 762 mmHg 64%
    12:00 +29°C° 0 mm 2 mps 761 mmHg 63%
    13:00 +29°C° 0 mm 2 mps 761 mmHg 62%
    14:00 +29°C° 0 mm 2 mps 761 mmHg 63%
    15:00 +29°C° 0 mm 2 mps 760 mmHg 64%
    16:00 +28°C° 0 mm 2 mps 760 mmHg 70%
    17:00 +26°C° 0 mm 2 mps 761 mmHg 78%
    18:00 +25°C° 0 mm 2 mps 761 mmHg 87%
    19:00 +23°C° 0 mm 2 mps 761 mmHg 95%
    20:00 +23°C° 0 mm 1 mps 762 mmHg 96%
    21:00 +22°C° 0 mm 1 mps 762 mmHg 96%
    22:00 +22°C° 0 mm 1 mps 762 mmHg 97%
    23:00 +22°C° 0 mm 1 mps 762 mmHg 97%

    Tomorrow, 21 July, Saturday

    Time Temperature Precipitation Wind Pressure Humidity
    00:00 +22°C° 0 mm 1 mps 762 mmHg 97%
    01:00 +21°C° 0 mm 2 mps 762 mmHg 97%
    02:00 +21°C° 0 mm 2 mps 762 mmHg 95%
    03:00 +21°C° 0 mm 2 mps 762 mmHg 93%
    04:00 +21°C° 0 mm 2 mps 762 mmHg 91%
    05:00 +20°C° 0 mm 2 mps 762 mmHg 92%
    06:00 +20°C° 0 mm 2 mps 762 mmHg 93%
    07:00 +19°C° 0 mm 3 mps 762 mmHg 94%
    08:00 +22°C° 0 mm 3 mps 762 mmHg 78%
    09:00 +25°C° 0 mm 4 mps 763 mmHg 62%
    10:00 +27°C° 0 mm 4 mps 763 mmHg 47%
    11:00 +28°C° 0 mm 4 mps 762 mmHg 44%
    12:00 +29°C° 0 mm 4 mps 762 mmHg 42%
    13:00 +30°C° 0 mm 5 mps 762 mmHg 39%
    14:00 +29°C° 0 mm 5 mps 761 mmHg 41%
    15:00 +29°C° 0 mm 5 mps 761 mmHg 43%
    16:00 +28°C° 0 mm 5 mps 761 mmHg 45%
    17:00 +26°C° 0 mm 4 mps 761 mmHg 53%
    18:00 +22°C° 0 mm 4 mps 761 mmHg 60%
    19:00 +20°C° 0 mm 4 mps 762 mmHg 68%
    20:00 +19°C° 0 mm 3 mps 762 mmHg 67%
    21:00 +19°C° 0 mm 3 mps 762 mmHg 66%
    22:00 +19°C° 0 mm 3 mps 762 mmHg 66%
    23:00 +18°C° 0 mm 3 mps 762 mmHg 70%

    Day after tomorrow, 22 July, Sunday

    Time Temperature Precipitation Wind Pressure Humidity
    00:00 +18°C° 0 mm 3 mps 762 mmHg 75%
    01:00 +18°C° 0 mm 3 mps 762 mmHg 79%
    02:00 +18°C° 0.1 mm 3 mps 762 mmHg 84%
    03:00 +19°C° 0.1 mm 3 mps 762 mmHg 89%
    04:00 +19°C° 0.1 mm 3 mps 761 mmHg 95%
    05:00 +19°C° 0.1 mm 3 mps 762 mmHg 96%
    06:00 +19°C° 0.1 mm 3 mps 762 mmHg 96%
    07:00 +19°C° 0.1 mm 3 mps 762 mmHg 97%
    08:00 +21°C° 0.1 mm 4 mps 762 mmHg 90%
    09:00 +23°C° 0.1 mm 4 mps 763 mmHg 84%
    10:00 +26°C° 0.1 mm 4 mps 763 mmHg 77%
    11:00 +26°C° 0.1 mm 4 mps 763 mmHg 74%
    12:00 +27°C° 0.1 mm 4 mps 762 mmHg 71%
    13:00 +28°C° 0.1 mm 5 mps 762 mmHg 68%
    14:00 +27°C° 0.1 mm 5 mps 761 mmHg 70%
    15:00 +27°C° 0.1 mm 5 mps 761 mmHg 72%
    16:00 +26°C° 0.1 mm 4 mps 760 mmHg 74%
    17:00 +25°C° 0.1 mm 4 mps 761 mmHg 81%
    18:00 +22°C° 0.1 mm 4 mps 761 mmHg 88%
    19:00 +21°C° 0.1 mm 4 mps 762 mmHg 95%
    20:00 +21°C° 0.1 mm 4 mps 762 mmHg 96%
    21:00 +21°C° 0.1 mm 4 mps 762 mmHg 96%
    22:00 +20°C° 0.1 mm 4 mps 762 mmHg 97%
    23:00 +20°C° 0.1 mm 4 mps 762 mmHg 97%

    23 July, Monday

    Time Temperature Precipitation Wind Pressure Humidity
    00:00 +21°C° 0.1 mm 4 mps 762 mmHg 97%
    01:00 +21°C° 0.1 mm 4 mps 761 mmHg 97%
    02:00 +21°C° 0.1 mm 3 mps 761 mmHg 97%
    03:00 +21°C° 0.1 mm 3 mps 761 mmHg 97%
    04:00 +21°C° 0.1 mm 3 mps 761 mmHg 97%
    05:00 +21°C° 0.1 mm 3 mps 761 mmHg 97%
    06:00 +21°C° 0.1 mm 4 mps 761 mmHg 97%
    07:00 +21°C° 0.1 mm 4 mps 762 mmHg 96%
    08:00 +22°C° 0.1 mm 4 mps 762 mmHg 92%
    09:00 +23°C° 0.1 mm 4 mps 762 mmHg 87%
    10:00 +25°C° 0.1 mm 4 mps 763 mmHg 82%
    11:00 +26°C° 0.1 mm 4 mps 762 mmHg 77%
    12:00 +27°C° 0.1 mm 4 mps 762 mmHg 73%
    13:00 +28°C° 0.1 mm 4 mps 761 mmHg 68%
    14:00 +27°C° 0.1 mm 4 mps 761 mmHg 69%
    15:00 +27°C° 0.1 mm 4 mps 760 mmHg 70%
    16:00 +27°C° 0.1 mm 4 mps 760 mmHg 71%
    17:00 +25°C° 0 mm 4 mps 760 mmHg 78%
    18:00 +22°C° 0 mm 4 mps 761 mmHg 86%
    19:00 +21°C° 0 mm 4 mps 761 mmHg 94%
    20:00 +20°C° 0 mm 4 mps 761 mmHg 95%
    21:00 +20°C° 0 mm 4 mps 762 mmHg 96%
    22:00 +20°C° 0 mm 4 mps 762 mmHg 96%
    23:00 +20°C° 0 mm 4 mps 762 mmHg 96%

    24 July, Tuesday

    Time Temperature Precipitation Wind Pressure Humidity
    00:00 +20°C° 0 mm 4 mps 762 mmHg 95%
    01:00 +20°C° 0 mm 3 mps 761 mmHg 95%
    02:00 +20°C° 0 mm 3 mps 761 mmHg 96%
    03:00 +20°C° 0 mm 3 mps 761 mmHg 96%
    04:00 +20°C° 0 mm 3 mps 760 mmHg 97%
    05:00 +20°C° 0 mm 3 mps 761 mmHg 97%
    06:00 +20°C° 0 mm 3 mps 761 mmHg 97%
    07:00 +19°C° 0 mm 3 mps 762 mmHg 98%
    08:00 +21°C° 0.1 mm 4 mps 762 mmHg 89%
    09:00 +23°C° 0.1 mm 4 mps 762 mmHg 81%
    10:00 +26°C° 0.1 mm 4 mps 762 mmHg 73%
    11:00 +27°C° 0.1 mm 4 mps 762 mmHg 70%
    12:00 +28°C° 0.1 mm 4 mps 761 mmHg 68%
    13:00 +28°C° 0.1 mm 4 mps 761 mmHg 65%
    14:00 +28°C° 0.2 mm 4 mps 761 mmHg 68%
    15:00 +27°C° 0.2 mm 4 mps 760 mmHg 71%
    16:00 +27°C° 0.2 mm 5 mps 760 mmHg 74%
    17:00 +25°C° 0.2 mm 4 mps 760 mmHg 81%
    18:00 +23°C° 0.2 mm 4 mps 761 mmHg 89%
    19:00 +21°C° 0.2 mm 4 mps 761 mmHg 96%
    20:00 +21°C° 0.1 mm 4 mps 762 mmHg 96%
    21:00 +21°C° 0.1 mm 5 mps 762 mmHg 96%
    22:00 +21°C° 0.1 mm 5 mps 762 mmHg 97%
    23:00 +21°C° 0.2 mm 5 mps 762 mmHg 97%

    25 July, Wednesday

    Time Temperature Precipitation Wind Pressure Humidity
    00:00 +20°C° 0.2 mm 4 mps 762 mmHg 97%
    01:00 +20°C° 0.2 mm 4 mps 761 mmHg 97%
    02:00 +20°C° 0.1 mm 4 mps 761 mmHg 97%
    03:00 +20°C° 0.1 mm 4 mps 761 mmHg 97%
    04:00 +20°C° 0.1 mm 4 mps 761 mmHg 97%
    05:00 +20°C° 0 mm 4 mps 761 mmHg 97%
    06:00 +20°C° 0 mm 4 mps 762 mmHg 97%
    07:00 +19°C° 0 mm 5 mps 762 mmHg 96%
    08:00 +21°C° 0 mm 5 mps 762 mmHg 88%
    09:00 +23°C° 0 mm 5 mps 763 mmHg 80%
    10:00 +25°C° 0 mm 5 mps 763 mmHg 72%
    11:00 +26°C° 0 mm 5 mps 762 mmHg 67%
    12:00 +28°C° 0 mm 5 mps 762 mmHg 61%
    13:00 +29°C° 0 mm 6 mps 761 mmHg 56%
    14:00 +28°C° 0 mm 5 mps 761 mmHg 58%
    15:00 +28°C° 0 mm 5 mps 761 mmHg 59%
    16:00 +27°C° 0 mm 5 mps 760 mmHg 61%
    17:00 +25°C° 0 mm 5 mps 761 mmHg 70%
    18:00 +22°C° 0 mm 4 mps 761 mmHg 78%
    19:00 +20°C° 0 mm 4 mps 762 mmHg 86%
    20:00 +20°C° 0 mm 4 mps 762 mmHg 89%
    21:00 +19°C° 0 mm 4 mps 762 mmHg 91%
    22:00 +19°C° 0 mm 4 mps 763 mmHg 93%
    23:00 +18°C° 0 mm 4 mps 762 mmHg 93%
    Show more